Overview Statistics Trail Chart Weather Telemetry Raw packets
 

This is the latest recevied weather packets stored in our database for station/object HB9TJR-3. If no packets are shown the sender has not sent any weather packets the latest 10 day(s).

<< 33 34 35 36 37 38 39 >>
Time Temp. Humidity Pressure Rain* Wind** Luminosity Snow
1787891491 18.33° C 82% 865.5 hPa 0 mm - - -
1787889571 18.33° C 82% 865.4 hPa 0 mm - - -
1787889226 18.89° C 81% 866 hPa 0 mm - - -
1787888611 18.89° C 81% 866 hPa 0 mm - - -
1787887651 18.89° C 82% 866.3 hPa 0 mm - - -
1787886691 18.89° C 82% 866.4 hPa 0 mm - - -
1787884771 18.89° C 82% 866.1 hPa 0 mm - - -
1787884319 18.89° C 84% 866 hPa 0 mm - - -
1787883811 18.89° C 84% 866 hPa 0 mm - - -
1787882851 18.89° C 85% 865.9 hPa 0 mm - - -
1787882579 18.89° C 85% 865.9 hPa 0 mm - - -
1787880931 18.89° C 87% 866.2 hPa 0 mm - - -
1787879971 18.89° C 87% 866.2 hPa 0 mm - - -
1787879011 18.89° C 85% 866.1 hPa 0 mm - - -
1787878539 18.89° C 85% 866.2 hPa 0 mm - - -
1787878051 18.89° C 85% 866.2 hPa 0 mm - - -
1787877091 18.89° C 84% 866.2 hPa 0 mm - - -
1787876131 19.44° C 83% 866 hPa 0 mm - - -
1787875171 19.44° C 83% 866.2 hPa 0 mm - - -
1787874211 19.44° C 83% 866.1 hPa 0 mm - - -
1787873251 19.44° C 82% 865.9 hPa 0 mm - - -
1787872291 19.44° C 79% 865.9 hPa 0 mm - - -
1787871332 19.44° C 77% 866.1 hPa 0 mm - - -
1787870371 19.44° C 78% 866.2 hPa 0 mm - - -
1787869411 19.44° C 79% 866.1 hPa 0 mm - - -

* Rain latest hour (hover to see other rain measurements)
** Current wind speed in m/s (hover to see current wind gust speed)